When you browse on this site, cookies collect data to enhance your experience and personalize the content and advertising you see.
Visit our Privacy Policy to learn more. By continuing to use the site, you agree to this use of cookies and data.
  • In Schweiz
  • Länderverzeichnis
  • Für 7 Tage
  • Wassertemperatur
  • Satellitenkarten
  • Wetterkarte
  • Widgets
  • user-avatar
    Anmelden

    Stündliche Wetter Hobart

    Heute, 10 Dezember, Montag

    Zeit Temperatur Niederschläge Wind Luftdruck Luftfeuchtigkeit
    00:00 +12°C° 0 mm 2 m/S 748 mmHg 94%
    01:00 +12°C° 0 mm 1 m/S 748 mmHg 95%
    02:00 +10°C° 0 mm 2 m/S 748 mmHg 96%
    03:00 +10°C° 0 mm 2 m/S 748 mmHg 96%
    04:00 +9°C° 0 mm 2 m/S 747 mmHg 98%
    05:00 +12°C° 0 mm 2 m/S 747 mmHg 85%
    06:00 +13°C° 0 mm 2 m/S 748 mmHg 72%
    07:00 +15°C° 0 mm 2 m/S 748 mmHg 59%
    08:00 +17°C° 0 mm 3 m/S 748 mmHg 51%
    09:00 +19°C° 0 mm 3 m/S 748 mmHg 44%
    10:00 +21°C° 0 mm 3 m/S 748 mmHg 37%
    11:00 +21°C° 0 mm 3 m/S 748 mmHg 39%
    12:00 +21°C° 0 mm 4 m/S 748 mmHg 41%
    13:00 +21°C° 0 mm 4 m/S 748 mmHg 43%
    14:00 +21°C° 0 mm 4 m/S 748 mmHg 44%
    15:00 +21°C° 0 mm 4 m/S 748 mmHg 46%
    16:00 +20°C° 0 mm 5 m/S 748 mmHg 47%
    17:00 +19°C° 0 mm 4 m/S 749 mmHg 52%
    18:00 +18°C° 0 mm 4 m/S 749 mmHg 57%
    19:00 +15°C° 0 mm 4 m/S 749 mmHg 63%
    20:00 +13°C° 0 mm 4 m/S 750 mmHg 72%
    21:00 +12°C° 0 mm 3 m/S 750 mmHg 81%
    22:00 +10°C° 0 mm 3 m/S 751 mmHg 90%
    23:00 +9°C° 0 mm 2 m/S 751 mmHg 91%

    Morgen, 11 Dezember, Dienstag

    Zeit Temperatur Niederschläge Wind Luftdruck Luftfeuchtigkeit
    00:00 +9°C° 0 mm 2 m/S 751 mmHg 93%
    01:00 +8°C° 0 mm 2 m/S 751 mmHg 95%
    02:00 +8°C° 0 mm 2 m/S 751 mmHg 95%
    03:00 +9°C° 0 mm 1 m/S 751 mmHg 96%
    04:00 +8°C° 0 mm 1 m/S 751 mmHg 96%
    05:00 +11°C° 0 mm 1 m/S 751 mmHg 87%
    06:00 +13°C° 0 mm 1 m/S 751 mmHg 78%
    07:00 +15°C° 0 mm 1 m/S 751 mmHg 68%
    08:00 +18°C° 0 mm 1 m/S 751 mmHg 58%
    09:00 +21°C° 0 mm 1 m/S 751 mmHg 48%
    10:00 +24°C° 0 mm 1 m/S 751 mmHg 37%
    11:00 +25°C° 0 mm 2 m/S 751 mmHg 35%
    12:00 +26°C° 0 mm 2 m/S 751 mmHg 33%
    13:00 +27°C° 0 mm 3 m/S 751 mmHg 30%
    14:00 +26°C° 0 mm 3 m/S 751 mmHg 34%
    15:00 +25°C° 0 mm 4 m/S 750 mmHg 37%
    16:00 +25°C° 0 mm 4 m/S 750 mmHg 41%
    17:00 +21°C° 0 mm 4 m/S 750 mmHg 49%
    18:00 +19°C° 0 mm 3 m/S 750 mmHg 58%
    19:00 +17°C° 0 mm 3 m/S 750 mmHg 66%
    20:00 +14°C° 0 mm 3 m/S 750 mmHg 75%
    21:00 +12°C° 0 mm 3 m/S 750 mmHg 84%
    22:00 +10°C° 0 mm 2 m/S 750 mmHg 93%
    23:00 +10°C° 0 mm 3 m/S 750 mmHg 94%

    übermorgen, 12 Dezember, Mittwoch

    Zeit Temperatur Niederschläge Wind Luftdruck Luftfeuchtigkeit
    00:00 +10°C° 0 mm 3 m/S 749 mmHg 95%
    01:00 +10°C° 0 mm 3 m/S 749 mmHg 96%
    02:00 +10°C° 0 mm 3 m/S 748 mmHg 97%
    03:00 +10°C° 0 mm 3 m/S 748 mmHg 97%
    04:00 +10°C° 0 mm 3 m/S 747 mmHg 97%
    05:00 +12°C° 0 mm 3 m/S 747 mmHg 88%
    06:00 +14°C° 0 mm 3 m/S 747 mmHg 79%
    07:00 +17°C° 0 mm 3 m/S 747 mmHg 70%
    08:00 +19°C° 0 mm 4 m/S 746 mmHg 58%
    09:00 +22°C° 0 mm 5 m/S 746 mmHg 46%
    10:00 +25°C° 0 mm 5 m/S 745 mmHg 33%
    11:00 +27°C° 0 mm 6 m/S 745 mmHg 31%
    12:00 +28°C° 0 mm 6 m/S 744 mmHg 28%
    13:00 +29°C° 0 mm 7 m/S 743 mmHg 26%
    14:00 +29°C° 0 mm 7 m/S 743 mmHg 29%
    15:00 +29°C° 0 mm 7 m/S 742 mmHg 32%
    16:00 +29°C° 0 mm 8 m/S 741 mmHg 36%
    17:00 +27°C° 0 mm 7 m/S 741 mmHg 42%
    18:00 +26°C° 0 mm 7 m/S 741 mmHg 49%
    19:00 +23°C° 0 mm 6 m/S 741 mmHg 56%
    20:00 +21°C° 0 mm 6 m/S 740 mmHg 64%
    21:00 +19°C° 0 mm 6 m/S 740 mmHg 71%
    22:00 +17°C° 0 mm 5 m/S 740 mmHg 79%
    23:00 +16°C° 0 mm 5 m/S 740 mmHg 82%

    13 Dezember, Donnerstag

    Zeit Temperatur Niederschläge Wind Luftdruck Luftfeuchtigkeit
    00:00 +16°C° 0 mm 5 m/S 739 mmHg 85%
    01:00 +15°C° 0 mm 5 m/S 739 mmHg 88%
    02:00 +15°C° 0.2 mm 4 m/S 739 mmHg 90%
    03:00 +15°C° 0.2 mm 4 m/S 738 mmHg 92%
    04:00 +16°C° 0.2 mm 3 m/S 738 mmHg 94%
    05:00 +16°C° 0.9 mm 3 m/S 738 mmHg 95%
    06:00 +15°C° 0.9 mm 4 m/S 738 mmHg 96%
    07:00 +17°C° 0.9 mm 4 m/S 738 mmHg 98%
    08:00 +17°C° 1.3 mm 4 m/S 738 mmHg 97%
    09:00 +18°C° 1.3 mm 4 m/S 738 mmHg 96%
    10:00 +19°C° 1.3 mm 4 m/S 738 mmHg 95%
    11:00 +19°C° 0.8 mm 4 m/S 738 mmHg 93%
    12:00 +20°C° 0.8 mm 4 m/S 738 mmHg 91%
    13:00 +21°C° 0.8 mm 3 m/S 738 mmHg 89%
    14:00 +21°C° 1 mm 3 m/S 738 mmHg 90%
    15:00 +21°C° 1 mm 3 m/S 738 mmHg 91%
    16:00 +21°C° 1 mm 3 m/S 738 mmHg 92%
    17:00 +20°C° 0.3 mm 3 m/S 739 mmHg 94%
    18:00 +20°C° 0.3 mm 3 m/S 739 mmHg 96%
    19:00 +19°C° 0.3 mm 3 m/S 740 mmHg 98%
    20:00 +19°C° 0 mm 3 m/S 741 mmHg 98%
    21:00 +19°C° 0 mm 3 m/S 741 mmHg 98%
    22:00 +18°C° 0 mm 3 m/S 742 mmHg 99%
    23:00 +18°C° 0 mm 3 m/S 742 mmHg 99%

    14 Dezember, Freitag

    Zeit Temperatur Niederschläge Wind Luftdruck Luftfeuchtigkeit
    00:00 +18°C° 0 mm 3 m/S 742 mmHg 99%
    01:00 +18°C° 0 mm 2 m/S 743 mmHg 99%
    02:00 +18°C° 0 mm 2 m/S 743 mmHg 99%
    03:00 +18°C° 0 mm 2 m/S 743 mmHg 99%
    04:00 +17°C° 0 mm 2 m/S 744 mmHg 99%
    05:00 +18°C° 0 mm 2 m/S 744 mmHg 98%
    06:00 +18°C° 0 mm 3 m/S 745 mmHg 96%
    07:00 +18°C° 0 mm 3 m/S 746 mmHg 95%
    08:00 +19°C° 0 mm 3 m/S 746 mmHg 91%
    09:00 +19°C° 0 mm 3 m/S 746 mmHg 86%
    10:00 +20°C° 0 mm 3 m/S 746 mmHg 82%
    11:00 +22°C° 0 mm 3 m/S 746 mmHg 68%
    12:00 +25°C° 0 mm 4 m/S 746 mmHg 55%
    13:00 +26°C° 0 mm 4 m/S 746 mmHg 41%
    14:00 +26°C° 0 mm 4 m/S 746 mmHg 43%
    15:00 +25°C° 0 mm 5 m/S 746 mmHg 45%
    16:00 +25°C° 0 mm 5 m/S 746 mmHg 46%
    17:00 +22°C° 0 mm 4 m/S 746 mmHg 56%
    18:00 +20°C° 0 mm 4 m/S 747 mmHg 65%
    19:00 +18°C° 0 mm 4 m/S 747 mmHg 74%
    20:00 +17°C° 0 mm 3 m/S 747 mmHg 81%
    21:00 +16°C° 0 mm 3 m/S 748 mmHg 88%
    22:00 +14°C° 0 mm 3 m/S 748 mmHg 95%
    23:00 +15°C° 0 mm 2 m/S 748 mmHg 96%

    15 Dezember, Samstag

    Zeit Temperatur Niederschläge Wind Luftdruck Luftfeuchtigkeit
    00:00 +15°C° 0 mm 2 m/S 747 mmHg 96%
    01:00 +15°C° 0 mm 2 m/S 747 mmHg 97%
    02:00 +15°C° 0 mm 2 m/S 747 mmHg 97%
    03:00 +15°C° 0 mm 2 m/S 747 mmHg 97%
    04:00 +14°C° 0 mm 3 m/S 747 mmHg 97%
    05:00 +14°C° 0.1 mm 3 m/S 747 mmHg 95%
    06:00 +16°C° 0.1 mm 3 m/S 747 mmHg 93%
    07:00 +16°C° 0.1 mm 3 m/S 747 mmHg 90%
    08:00 +17°C° 0 mm 3 m/S 747 mmHg 87%
    09:00 +18°C° 0 mm 3 m/S 747 mmHg 83%
    10:00 +18°C° 0 mm 3 m/S 746 mmHg 79%
    11:00 +19°C° 0.4 mm 3 m/S 746 mmHg 80%
    12:00 +19°C° 0.4 mm 3 m/S 745 mmHg 81%
    13:00 +19°C° 0.4 mm 4 m/S 745 mmHg 82%
    14:00 +18°C° 1.7 mm 3 m/S 744 mmHg 87%
    15:00 +17°C° 1.7 mm 3 m/S 744 mmHg 92%
    16:00 +17°C° 1.7 mm 3 m/S 744 mmHg 96%
    17:00 +17°C° 1.1 mm 3 m/S 743 mmHg 97%
    18:00 +17°C° 1.1 mm 3 m/S 743 mmHg 97%
    19:00 +17°C° 1.1 mm 3 m/S 743 mmHg 98%
    20:00 +17°C° 0.7 mm 3 m/S 743 mmHg 98%
    21:00 +17°C° 0.7 mm 3 m/S 743 mmHg 99%
    22:00 +17°C° 0.7 mm 3 m/S 742 mmHg 99%
    23:00 +17°C° 0.7 mm 2 m/S 742 mmHg 99%
    Mehr zeigen